Belen, NM

8:47 PM MDT on April 25, 2017 (GMT -0600)
Belen

Weather History for KE80 - April, 2013

Change the Weather History Date:

Thursday, April 11, 2013

  Actual Average (KABQ) Record (KABQ)
Temperature  
Mean Temperature 48 °F -  
Max Temperature 66 °F 70 °F 85 °F (1971)
Min Temperature 29 °F 40 °F 21 °F (1933)
Degree Days  
Heating Degree Days 18    
Moisture  
Dew Point 21 °F    
Average Humidity 36    
Maximum Humidity 61    
Minimum Humidity 17    
Precipitation  
Precipitation 0.00 in - - ()
Sea Level Pressure  
Sea Level Pressure 29.92 in    
Wind  
Wind Speed 7 mph (NNW)    
Max Wind Speed 18 mph    
Max Gust Speed 31 mph    
Visibility 10 miles    
Events Rain    
Averages and records for this station are not official NWS values.
T = Trace of Precipitation, MM = Missing Value Source: NWS Daily Summary

Daily Weather History Graph

Daily Weather History Graph

Search for Another Location

Airport or City:

Trip Planner

Search our weather history database for the weather conditions in past years. The results will help you decide how hot, cold, wet, or windy it might be!

Date:

Astronomy

Apr. 11, 2013 Rise Set
Actual Time 6:40 AM MDT 7:36 PM MDT
Civil Twilight 6:14 AM MDT 8:02 PM MDT
Nautical Twilight 5:44 AM MDT 8:32 PM MDT
Astronomical Twilight 5:12 AM MDT 9:04 PM MDT
Moon 7:17 AM MDT (4/11) 9:08 PM MDT (4/11)
Length of Visible Light 13h 47m
Length of Day
12h 56m
New Moon, 2% of the Moon is Illuminated
Apr 11
New Moon
Apr 18
First Quarter
Apr 25
Full
May 2
Last Quarter
May 9
New

Hourly Weather History & Observations

Time (MDT) Temp. Windchill Dew Point Humidity Pressure Visibility Wind Dir Wind Speed Gust Speed Precip Events Conditions
12:15 AM 35.6 °F 29.2 °F 19.0 °F 51% 29.98 in 10.0 mi West 8.1 mph - N/A   Clear
12:35 AM 35.4 °F 29.7 °F 18.9 °F 51% 29.98 in 10.0 mi West 6.9 mph - N/A   Clear
12:55 AM 33.8 °F 29.6 °F 18.9 °F 54% 29.98 in 10.0 mi West 4.6 mph - N/A   Clear
1:15 AM 34.2 °F 28.2 °F 19.0 °F 54% 29.98 in 10.0 mi West 6.9 mph - N/A   Clear
1:35 AM 33.3 °F 25.7 °F 19.0 °F 56% 29.97 in 10.0 mi West 9.2 mph - N/A   Clear
1:55 AM 33.8 °F 27.0 °F 18.9 °F 54% 29.97 in 10.0 mi West 8.1 mph - N/A   Clear
2:15 AM 36.3 °F 31.6 °F 18.5 °F 48% 29.96 in 10.0 mi WNW 5.8 mph - N/A   Clear
2:35 AM 32.2 °F 25.0 °F 18.5 °F 57% 29.95 in 10.0 mi WNW 8.1 mph - N/A   Clear
2:55 AM 34.7 °F 26.9 °F 18.3 °F 51% 29.95 in 10.0 mi WNW 10.4 mph - N/A   Clear
3:15 AM 32.4 °F 26.0 °F 17.8 °F 55% 29.94 in 10.0 mi NW 6.9 mph - N/A   Clear
3:35 AM 32.5 °F 25.5 °F 17.6 °F 54% 29.94 in 10.0 mi NW 8.1 mph - N/A   Clear
3:55 AM 30.9 °F 25.2 °F 17.2 °F 57% 29.94 in 10.0 mi WNW 5.8 mph - N/A   Clear
4:15 AM 31.5 °F 25.8 °F 16.7 °F 54% 29.94 in 10.0 mi WNW 5.8 mph - N/A   Clear
4:35 AM 29.8 °F 23.0 °F 16.3 °F 57% 29.94 in 10.0 mi SW 6.9 mph - N/A   Clear
4:55 AM 29.7 °F 26.1 °F 16.5 °F 58% 29.94 in 10.0 mi West 3.5 mph - N/A   Clear
5:15 AM 31.1 °F 27.7 °F 17.1 °F 56% 29.94 in 10.0 mi WNW 3.5 mph - N/A   Clear
5:35 AM 30.7 °F 24.9 °F 16.7 °F 56% 29.95 in 10.0 mi NNW 5.8 mph - N/A   Clear
5:55 AM 31.1 °F 25.4 °F 17.1 °F 56% 29.95 in 10.0 mi NNE 5.8 mph - N/A   Clear
6:15 AM 30.0 °F 24.1 °F 17.4 °F 59% 29.95 in 10.0 mi ENE 5.8 mph - N/A   Clear
6:35 AM 30.2 °F - 18.1 °F 61% 29.96 in 10.0 mi Calm Calm - N/A   Clear
6:55 AM 31.3 °F 27.9 °F 16.9 °F 55% 29.97 in 10.0 mi NE 3.5 mph - N/A   Clear
7:35 AM 36.1 °F 33.5 °F 18.9 °F 50% 29.97 in 10.0 mi ESE 3.5 mph - N/A   Clear
7:55 AM 38.8 °F 36.5 °F 18.1 °F 43% 29.98 in 10.0 mi ESE 3.5 mph - N/A   Clear
8:15 AM 40.5 °F - 17.6 °F 40% 29.98 in 10.0 mi Calm Calm - N/A   Clear
8:35 AM 42.8 °F 40.1 °F 16.7 °F 35% 29.98 in 10.0 mi East 4.6 mph - N/A   Clear
8:55 AM 42.8 °F 39.3 °F 16.0 °F 34% 29.99 in 10.0 mi East 5.8 mph - N/A   Clear
9:15 AM 44.4 °F 41.2 °F 16.3 °F 32% 29.99 in 10.0 mi NE 5.8 mph - N/A   Clear
9:35 AM 45.5 °F 42.5 °F 15.6 °F 30% 29.99 in 10.0 mi NE 5.8 mph - N/A   Clear
9:55 AM 47.1 °F - 16.7 °F 30% 29.99 in 10.0 mi NNE 5.8 mph - N/A   Clear
10:15 AM 48.4 °F - 16.2 °F 28% 29.98 in 10.0 mi NE 8.1 mph - N/A   Clear
10:35 AM 49.1 °F - 16.0 °F 27% 29.98 in 10.0 mi NE 6.9 mph - N/A   Clear
11:15 AM 51.8 °F - 17.1 °F 25% 29.97 in 10.0 mi NNE 6.9 mph - N/A   Clear
11:35 AM 51.4 °F - 17.4 °F 26% 29.97 in 10.0 mi NNE 5.8 mph - N/A   Clear
11:55 AM 54.3 °F - 18.1 °F 24% 29.95 in 10.0 mi NNE 6.9 mph - N/A   Clear
12:15 PM 54.7 °F - 18.0 °F 24% 29.94 in 10.0 mi North 8.1 mph - N/A   Clear
12:35 PM 57.2 °F - 18.0 °F 22% 29.94 in 10.0 mi North 4.6 mph - N/A   Clear
12:55 PM 57.6 °F - 18.5 °F 22% 29.93 in 10.0 mi North 10.4 mph - N/A   Clear
1:15 PM 58.3 °F - 18.3 °F 21% 29.92 in 10.0 mi Calm Calm - N/A   Clear
1:35 PM 59.4 °F - 18.5 °F 20% 29.91 in 10.0 mi WNW 3.5 mph - N/A   Clear
1:55 PM 60.1 °F - 18.9 °F 20% 29.90 in 10.0 mi NNE 9.2 mph - N/A   Clear
2:15 PM 60.8 °F - 19.2 °F 20% 29.89 in 10.0 mi East 8.1 mph - N/A   Clear
2:35 PM 62.6 °F - 19.0 °F 19% 29.88 in 10.0 mi SE 4.6 mph - N/A   Clear
2:55 PM 64.4 °F - 19.0 °F 18% 29.87 in 10.0 mi ENE 8.1 mph - N/A   Mostly Cloudy
3:15 PM 64.4 °F - 19.0 °F 18% 29.86 in 10.0 mi NNE 3.5 mph - N/A   Overcast
3:35 PM 65.5 °F - 19.2 °F 17% 29.85 in 10.0 mi NNE 8.1 mph - N/A   Overcast
3:55 PM 65.5 °F - 19.6 °F 17% 29.84 in 10.0 mi NW 4.6 mph - N/A   Overcast
4:15 PM 65.5 °F - 20.5 °F 18% 29.83 in 10.0 mi NNW 5.8 mph - N/A   Overcast
4:35 PM 66.2 °F - 21.2 °F 18% 29.82 in 10.0 mi NW 9.2 mph - N/A   Overcast
4:55 PM 65.7 °F - 21.2 °F 18% 29.82 in 10.0 mi NNW 5.8 mph - N/A   Overcast
5:15 PM 66.4 °F - 22.6 °F 19% 29.82 in 10.0 mi NNW 11.5 mph 26.5 mph N/A   Overcast
5:35 PM 66.0 °F - 22.3 °F 19% 29.82 in 10.0 mi NW 15.0 mph 18.4 mph N/A   Overcast
5:55 PM 65.3 °F - 23.7 °F 21% 29.83 in 10.0 mi NNW 8.1 mph 26.5 mph N/A   Overcast
6:15 PM 64.0 °F - 25.2 °F 23% 29.83 in 10.0 mi North 12.7 mph - N/A   Overcast
6:35 PM 62.6 °F - 27.5 °F 26% 29.84 in 10.0 mi NNW 18.4 mph 31.1 mph N/A   Overcast
6:55 PM 61.3 °F - 29.1 °F 30% 29.85 in 10.0 mi NNW 15.0 mph 27.6 mph N/A   Overcast
7:15 PM 60.8 °F - 29.7 °F 31% 29.86 in 10.0 mi NW 8.1 mph 11.5 mph N/A   Overcast
7:35 PM 60.8 °F - 28.9 °F 30% 29.86 in 10.0 mi NW 10.4 mph - N/A   Overcast
7:55 PM 59.5 °F - 29.7 °F 32% 29.87 in 10.0 mi NNW 10.4 mph - N/A   Mostly Cloudy
8:15 PM 59.2 °F - 29.5 °F 32% 29.87 in 10.0 mi West 11.5 mph 19.6 mph N/A   Mostly Cloudy
8:35 PM 59.2 °F - 28.2 °F 31% 29.87 in 10.0 mi Calm Calm - N/A   Scattered Clouds
8:55 PM 58.5 °F - 27.3 °F 30% 29.87 in 10.0 mi North 5.8 mph - N/A   Scattered Clouds
9:15 PM 55.6 °F - 27.5 °F 34% 29.88 in 10.0 mi NNW 4.6 mph - N/A   Clear
9:35 PM 53.4 °F - 27.3 °F 37% 29.89 in 10.0 mi North 8.1 mph - N/A   Scattered Clouds
9:55 PM 53.8 °F - 27.9 °F 37% 29.90 in 10.0 mi North 9.2 mph - N/A   Mostly Cloudy
10:15 PM 54.9 °F - 27.0 °F 34% 29.91 in 10.0 mi North 6.9 mph - N/A   Overcast
10:35 PM 55.0 °F - 26.4 °F 33% 29.91 in 10.0 mi NNW 8.1 mph - N/A   Overcast
10:55 PM 55.4 °F - 26.6 °F 33% 29.91 in 10.0 mi NNW 10.4 mph - N/A   Overcast
11:15 PM 54.7 °F - 27.1 °F 35% 29.91 in 10.0 mi NW 8.1 mph - N/A   Overcast
11:35 PM 54.5 °F - 28.8 °F 37% 29.93 in 10.0 mi NW 6.9 mph - N/A   Overcast
11:55 PM 54.7 °F - 34.3 °F 46% 29.94 in 10.0 mi West 5.8 mph - N/A Rain Light Rain